Location: Boursonne
(49.2024°N, 3.0468°E)
Time: 08:15:41
(UTC+00:00)

Cosmos 1666 - Pass Details

Date: 03 March 2021
Orbit: 497 x 518 km, 82.5° (Epoch: 11 April)

Event Time Altitude Azimuth Distance (km) Brightness Sun altitude
Rises 20:04:36 0° 211° (SSW) 2,576 6.4 -25.0°
Reaches altitude 10° 20:06:51 10° 221° (SW) 1,699 5.5 -25.3°
Maximum altitude 20:10:14 32° 287° (WNW) 872 4.4 -25.8°
Drops below altitude 10° 20:13:40 10° 352° (N) 1,718 5.7 -26.4°
Sets 20:15:57 0° 3° (N) 2,611 6.5 -26.7°
